Location: Heiligenberg
(48.5381°N, 7.3897°E)
Time: 02:25:25
(UTC+00:00)

USA-17 - Pass Details

Date: 26 May 2022
Orbit: 385 x 1760 km, 63.3° (Epoch: 26 June)

Event Time Altitude Azimuth Distance (km) Brightness Sun altitude
Rises 01:52:46 0° 318° (NW) 2,333 8.2 -13.2°
Reaches altitude 10° 01:54:37 10° 317° (NW) 1,531 7.2 -13.0°
Maximum altitude 01:57:55 82° 230° (SW) 503 4.5 -12.7°
Drops below altitude 10° 02:02:09 10° 143° (SE) 1,961 7.5 -12.3°
Sets 02:04:48 0° 143° (SE) 3,075 8.5 -12.0°
